Погода в Алерте

Канада     82°30′11″N   62°21′10″W
темп.,
°C
ветер,
м/с
пор.,
м/с
влажн.,
%
обл.,
%
осадки,
мм/ч
давл.,
гПа
погр.,
м
1 марта, пн
пн101:00−26св119474 0.0 100920
04:00−25ссв1198100 0.0 101120
07:00−24в1197100 0.0 101220
10:00−24в1297100 0.0 101228
13:00−24всв1198100 0.0 101420
16:00−24ссв019693 0.0 101720
19:00−22юв239397 0.0 101975
22:00−22ююз4483100 0.1 102381
2 марта, вт
вт201:00−24юз5780100 0.1 1024176
04:00−24ююз5780100 0.0 1027148
07:00−24юз5678100 0.0 1027124
10:00−23ююз6873100 0.0 1028153
13:00−24ююз5774100 0.0 102897
16:00−25юз4573100 0.0 102842
19:00−25юз347194 0.0 102719
22:00−26зюз227350 0.0 102620
3 марта, ср
ср301:00−27зюз127550 0.0 102520
04:00−27ююз117812 0.0 102519
07:00−28юв12797 0.0 102419
10:00−27юв23700 0.0 102219
13:00−27вюв236231 0.0 101819
16:00−25вюв235953 0.0 101622
19:00−22юв346376 0.0 101239
22:00−18ю556184 0.0 101042
4 марта, чт
чт401:00−16ююз8136242 0.0 1010182
04:00−21ююз1629520 0.0 1015559
07:00−26ююз1327510 0.0 1018686
10:00−31ююз7167533 0.0 1021443
13:00−31юз8137567 0.0 1023285
16:00−31юз8127195 0.0 1026237
19:00−30зюз457998 0.0 1027108
22:00−31юз6974100 0.0 1029249
5 марта, пт
пт501:00−31юз6878100 0.0 1029229
04:00−31юз7878100 0.1 1032223
07:00−31юз5680100 0.1 1033160
10:00−30юз4578100 0.0 1034147
13:00−29юз3383100 0.1 1035100
16:00−29юз238293 0.0 103732
19:00−30ююз118694 0.0 103719
22:00−29ююз0194100 0.0 103719